Kayseri, Turkey

1:34 AM +03 on March 27, 2017 (GMT +0300)
Erkilet Air Base

Weather History for LTAU - January, 2013

Change the Weather History Date:

Tuesday, January 15, 2013

  Actual Average Record
Temperature  
Mean Temperature 27 °F -  
Max Temperature 36 °F 40 °F 53 °F (1999)
Min Temperature 18 °F 21 °F -11 °F (2008)
Degree Days  
Heating Degree Days 38    
Moisture  
Dew Point 24 °F    
Average Humidity 87    
Maximum Humidity 100    
Minimum Humidity 64    
Precipitation  
Precipitation 0.00 in - - ()
Sea Level Pressure  
Sea Level Pressure 30.39 in    
Wind  
Wind Speed 4 mph ()    
Max Wind Speed 13 mph    
Max Gust Speed -    
Visibility 3.0 miles    
Events Fog    
Averages and records for this station are not official NWS values.
T = Trace of Precipitation, MM = Missing Value Source: Averaged Metar Reports

Daily Weather History Graph

Daily Weather History Graph

Search for Another Location

Airport or City:

Trip Planner

Search our weather history database for the weather conditions in past years. The results will help you decide how hot, cold, wet, or windy it might be!

Date:

Astronomy

Jan. 15, 2013 Rise Set
Actual Time 6:55 AM EET 4:40 PM EET
Civil Twilight 6:26 AM EET 5:09 PM EET
Nautical Twilight 5:53 AM EET 5:42 PM EET
Astronomical Twilight 5:21 AM EET 6:14 PM EET
Moon 8:52 AM EET (1/15) 9:05 PM EET (1/15)
Length of Visible Light 10h 43m
Length of Day
9h 45m
Waxing Crescent, 16% of the Moon is Illuminated
Jan 15
Waxing Crescent
Jan 19
First Quarter
Jan 27
Full
Feb 3
Last Quarter
Feb 10
New

Hourly Weather History & Observations

Time (EET) Temp. Windchill Dew Point Humidity Pressure Visibility Wind Dir Wind Speed Gust Speed Precip Events Conditions
12:20 AM 24.8 °F - 23.0 °F 93% 30.36 in 3.7 mi NE 2.3 mph - N/A   Unknown
12:50 AM 24.8 °F - 23.0 °F 93% 30.39 in 1.3 mi Calm Calm - N/A   Mist
1:20 AM 23.0 °F - 23.0 °F 100% 30.39 in 1.4 mi Calm Calm - N/A   Mist
1:50 AM 24.8 °F - 23.0 °F 93% 30.39 in 2.2 mi Calm Calm - N/A   Mist
2:00 AM 24 °F - 24 °F 98%  in 2 mi Calm Calm - -   Mist
2:20 AM 23.0 °F - 21.2 °F 93% 30.39 in 1.7 mi Calm Calm - N/A   Mist
2:50 AM 23.0 °F - 21.2 °F 93% 30.39 in 1.7 mi NE 2.3 mph - N/A   Mist
3:20 AM 23.0 °F - 23.0 °F 100% 30.39 in 1.7 mi Calm Calm - N/A   Mist
3:50 AM 23.0 °F - 21.2 °F 93% 30.39 in 1.7 mi Calm Calm - N/A   Mist
4:20 AM 21.2 °F - 21.2 °F 100% 30.39 in 0.6 mi Calm Calm - N/A Fog Patches of Fog
4:50 AM 21.2 °F - 19.4 °F 93% 30.39 in 1.3 mi Calm Calm - N/A   Scattered Clouds
5:20 AM 21.2 °F - 21.2 °F 100% 30.39 in 1.7 mi Calm Calm - N/A   Scattered Clouds
5:50 AM 19.4 °F - 19.4 °F 100% 30.39 in 1.6 mi Calm Calm - N/A   Scattered Clouds
6:20 AM 19.4 °F - 19.4 °F 100% 30.42 in 0.3 mi Calm Calm - N/A Fog Patches of Fog
6:50 AM 19.4 °F - 17.6 °F 93% 30.42 in 0.7 mi Calm Calm - N/A Fog Patches of Fog
7:50 AM 23.0 °F - 21.2 °F 93% 30.42 in 2.5 mi NNE 2.3 mph - N/A   Scattered Clouds
8:00 AM 22 °F - 22 °F 98%  in 2 mi NNE 2.3 mph - -   Mist
8:20 AM 24.8 °F 19.1 °F 23.0 °F 93% 30.45 in 3.7 mi NNE 4.6 mph - N/A   Scattered Clouds
8:50 AM 26.6 °F 21.2 °F 24.8 °F 93% 30.45 in 3.7 mi NNE 4.6 mph - N/A   Scattered Clouds
9:20 AM 28.4 °F 23.3 °F 26.6 °F 93% 30.42 in 5.0 mi NNE 4.6 mph - N/A   Partly Cloudy
9:50 AM 30.2 °F 25.4 °F 26.6 °F 86% 30.42 in 5.6 mi NNE 4.6 mph - N/A   Partly Cloudy
10:20 AM 32.0 °F 25.6 °F 28.4 °F 87% 30.42 in - NNE 6.9 mph - N/A   Clear
10:50 AM 32.0 °F 24.8 °F 26.6 °F 80% 30.42 in - North 8.1 mph - N/A   Clear
11:20 AM 33.8 °F 27.7 °F 28.4 °F 81% 30.39 in - NNE 6.9 mph - N/A   Clear
11:50 AM 33.8 °F 28.6 °F 28.4 °F 81% 30.39 in - NNE 5.8 mph - N/A   Clear
12:20 PM 35.6 °F 29.9 °F 28.4 °F 75% 30.39 in - NNE 6.9 mph - N/A   Clear
12:50 PM 35.6 °F 28.0 °F 28.4 °F 75% 30.36 in - NNE 10.4 mph - N/A   Clear
1:20 PM 35.6 °F 28.0 °F 28.4 °F 75% 30.36 in - NNE 10.4 mph - N/A   Clear
1:50 PM 35.6 °F 28.0 °F 28.4 °F 75% 30.36 in - NNE 10.4 mph - N/A   Clear
2:00 PM 36 °F - 28 °F 64%  in 12 mi NNE 10.4 mph - -  
2:20 PM 35.6 °F 28.6 °F 28.4 °F 75% 30.36 in - NNE 9.2 mph - N/A   Clear
2:50 PM 33.8 °F 24.8 °F 26.6 °F 75% 30.36 in - NNE 12.7 mph - N/A   Clear
3:20 PM 33.8 °F 25.3 °F 26.6 °F 75% 30.36 in - NNE 11.5 mph - N/A   Clear
3:50 PM 32.0 °F 23.0 °F 26.6 °F 80% 30.36 in - NNE 11.5 mph - N/A   Clear
4:20 PM 30.2 °F 21.3 °F 24.8 °F 80% 30.36 in - NE 10.4 mph - N/A   Clear
4:50 PM 28.4 °F 18.5 °F 24.8 °F 86% 30.39 in - NE 11.5 mph - N/A   Clear
5:20 PM 28.4 °F 19.7 °F 24.8 °F 86% 30.39 in - NE 9.2 mph - N/A   Clear
5:50 PM 28.4 °F 19.7 °F 24.8 °F 86% 30.39 in - NNE 9.2 mph - N/A   Clear
6:20 PM 26.6 °F 19.1 °F 24.8 °F 93% 30.39 in - NNE 6.9 mph - N/A   Clear
6:50 PM 26.6 °F 19.1 °F 24.8 °F 93% 30.39 in - NNE 6.9 mph - N/A   Clear
7:20 PM 26.6 °F 18.2 °F 23.0 °F 86% 30.39 in - NNE 8.1 mph - N/A   Clear
7:50 PM 26.6 °F 16.8 °F 23.0 °F 86% 30.39 in - NNE 10.4 mph - N/A   Clear
8:00 PM 26 °F - 22 °F 80%  in 12 mi NNE 10.4 mph - -  
8:20 PM 24.8 °F 16.1 °F 21.2 °F 86% 30.39 in - NE 8.1 mph - N/A   Clear
8:50 PM 24.8 °F 16.1 °F 21.2 °F 86% 30.39 in - NNE 8.1 mph - N/A   Clear
9:20 PM 24.8 °F 16.1 °F 21.2 °F 86% 30.36 in - NNE 8.1 mph - N/A   Clear
9:50 PM 23.0 °F 17.0 °F 19.4 °F 86% 30.36 in - ENE 4.6 mph - N/A   Clear
10:20 PM 23.0 °F 17.0 °F 19.4 °F 86% 30.36 in - ENE 4.6 mph - N/A   Clear
10:50 PM 23.0 °F - 19.4 °F 86% 30.36 in - Variable 1.2 mph - N/A   Clear
11:20 PM 23.0 °F 17.0 °F 19.4 °F 86% 30.36 in - NNE 4.6 mph - N/A   Clear
11:50 PM 23.0 °F 15.8 °F 19.4 °F 86% 30.36 in - NNE 5.8 mph - N/A   Clear